Weather observations for the past three days for
Page, Page Municipal Airport
Imperial (Metric)
Date Time (mst) Wind (mph) Vis. (mi.) Weather Sky Cond. Temperature (ºF) Relative Humidity Wind Chill (°F) Heat Index (°F) Pressure Precipitation (in)
Air Dwpt 6 hour altimeter (in) sea level (mb) 1 hr 3 hr 6 hr
Max. Min.
02 11:53 N 7 10.00 Fair CLR 70 21 16% 30.14 1016.2
02 10:53 Vrbl 6 10.00 Fair CLR 66.9 19 66.9 48.9 16% 30.16 1016.9
02 09:53 Calm 10.00 Fair CLR 64 16 15% 30.17 1017.3
02 08:53 NW 6 10.00 Fair CLR 59 12 15% 30.17 1017.5
02 07:53 Vrbl 3 10.00 Fair CLR 55.9 12 17% 30.16 1017.3
02 06:53 SE 5 10.00 Fair CLR 54 9 16% 30.15 1016.8
02 05:53 Calm 10.00 Fair CLR 48.9 9 20% 30.12 1016.0
02 04:53 Calm 10.00 Fair CLR 50 10 61 48.9 20% 30.11 1015.5
02 03:53 SE 5 10.00 Fair CLR 51.1 12 21% 30.11 1015.5
02 02:53 SW 3 10.00 Fair CLR 52 12 20% 30.1 1015.3
02 01:53 SW 3 10.00 Fair CLR 53.1 14 21% 30.1 1015.0
02 00:53 W 5 10.00 Fair CLR 54 16 22% 30.1 1014.9
01 23:53 SW 3 10.00 Fair CLR 55 15.1 21% 30.09 1014.7
01 22:53 SE 3 10.00 Fair CLR 61 10.9 70 60.1 14% 30.08 1013.9
01 21:53 E 3 10.00 Fair CLR 62.1 16 17% 30.07 1014.1
01 20:53 N 3 10.00 Fair CLR 64 19 18% 30.05 1013.1
01 19:53 Calm 10.00 Fair CLR 64.9 19 17% 30.02 1012.3
01 18:53 NW 7 10.00 Fair CLR 68 18 15% 30.01 1011.6
01 17:53 N 5 10.00 Fair CLR 70 18 14% 30 1011.3
01 16:53 N 9 G 20 10.00 Fair CLR 71.1 19 72 64.9 14% 30 1011.3
01 15:53 N 14 G 23 10.00 Fair CLR 70 19 14% 29.99 1011.0
01 14:53 Calm 10.00 Partly Cloudy SCT110 70 19 14% 30 1011.2
01 13:53 Calm 10.00 Fair CLR 69.1 19.9 15% 30.02 1011.7
01 12:53 NE 9 G 22 10.00 Fair CLR 69.1 19.9 15% 30.03 1012.0
01 11:53 N 9 G 22 10.00 Fair CLR 66 21 18% 30.05 1012.8
01 10:53 Vrbl 3 10.00 Fair CLR 66 21 66 55 18% 30.06 1013.2
01 09:53 Vrbl 3 10.00 Fair CLR 62.1 21.9 21% 30.07 1013.7
01 08:53 NE 5 10.00 Fair CLR 61 21.9 22% 30.06 1013.5
01 07:53 N 3 10.00 Fair CLR 59 25 27% 30.05 1013.3
01 06:53 N 6 10.00 Fair CLR 57.9 25 28% 30.04 1012.8
01 05:53 N 3 10.00 A Few Clouds FEW110 55.9 25 30% 30.01 1011.7
01 04:53 E 7 10.00 Fair CLR 57 23 64.9 55.9 27% 30 1011.0
01 03:53 Calm 10.00 Mostly Cloudy BKN110 57.9 21.9 25% 29.98 1010.6
01 02:53 N 6 10.00 Mostly Cloudy BKN120 60.1 23 24% 29.97 1009.9
01 01:53 NW 5 10.00 Fair CLR 61 21 21% 29.97 1009.8
01 00:53 N 8 10.00 Fair CLR 62.1 19.9 20% 29.96 1009.8
30 23:53 N 8 10.00 Fair CLR 63 19 18% 29.96 1009.8
30 22:53 N 13 10.00 Mostly Cloudy BKN110 66 18 73 64 16% 29.93 1008.5
30 21:53 NW 5 10.00 Mostly Cloudy BKN120 64 18 17% 29.92 1008.5
30 20:53 NE 3 10.00 Fair CLR 64.9 15.1 14% 29.9 1007.9
30 19:53 Calm 10.00 Fair CLR 66 15.1 14% 29.88 1007.3
30 18:53 NE 7 10.00 Fair CLR 68 15.1 13% 29.87 1006.8
30 17:53 NE 12 10.00 Fair CLR 71.1 16 12% 29.86 1006.9
30 16:53 E 9 G 17 10.00 Fair CLR 72 16 73 64.9 12% 29.87 1006.8
30 15:53 NE 8 10.00 Fair CLR 72 16 12% 29.88 1007.2
30 14:53 N 13 G 20 10.00 Fair CLR 72 15.1 11% 29.91 1008.1
30 13:53 NE 8 10.00 Fair CLR 71.1 15.1 12% 29.93 1008.8
30 12:53 Calm 10.00 Fair CLR 68 18 15% 29.95 1009.4
30 11:53 N 9 10.00 Fair CLR 66.9 19 16% 29.98 1010.3
30 10:53 NE 8 10.00 Fair CLR 66.9 19 66.9 51.1 16% 29.99 1010.9
30 09:53 Calm 10.00 Fair CLR 64 19 18% 30 1011.3
30 08:53 NW 3 10.00 Fair CLR 61 18 19% 30.01 1011.4
30 07:53 NW 3 10.00 Fair CLR 59 18 20% 30.01 1011.7
30 06:53 Calm 10.00 A Few Clouds FEW110 57 18 22% 30.01 1011.5
30 05:53 Calm 10.00 Mostly Cloudy BKN100 53.1 18 25% 29.99 1011.2
30 04:53 W 5 10.00 Fair CLR 53.1 19.9 63 51.1 27% 29.99 1011.0
30 03:53 W 3 10.00 Fair CLR 55.9 19 24% 29.98 1010.7
30 02:53 Calm 10.00 Fair CLR 55.9 21.9 27% 29.98 1010.7
30 01:53 W 3 10.00 Fair CLR 57.9 23 26% 29.99 1010.9
30 00:53 W 5 10.00 Fair CLR 59 25 27% 29.99 1011.1
29 23:53 NW 6 10.00 Fair CLR 62.1 26.1 25% 30 1011.1
29 22:53 NW 7 10.00 Fair CLR 63 21.9 72 62.1 21% 29.98 1010.6
29 21:53 NW 3 10.00 Fair CLR 64 21.9 20% 29.97 1010.4
29 20:53 NW 7 10.00 Fair CLR 66 21.9 19% 29.97 1010.2
29 19:53 NW 8 10.00 Fair CLR 68 15.1 13% 29.94 1009.2
29 18:53 Vrbl 3 10.00 Fair CLR 70 16 12% 29.92 1008.6
29 17:53 N 5 10.00 Fair CLR 72 17.1 12% 29.92 1008.8
29 16:53 SW 7 G 16 10.00 A Few Clouds FEW120 72 17.1 73 63 12% 29.93 1009.0
29 15:53 Calm 10.00 A Few Clouds FEW120 72 18 13% 29.95 1009.4
29 14:53 Calm 10.00 Mostly Cloudy BKN120 71.1 18 13% 29.96 1009.9
29 13:53 S 6 10.00 A Few Clouds FEW110 69.1 18 14% 30 1011.4
29 12:53 Vrbl 5 10.00 Fair CLR 66.9 19.9 17% 30.02 1012.0
Date Time (mst) Wind (mph) Vis. (mi.) Weather Sky Cond. Air Dwpt Max. Min. Relative Humidity Wind Chill (°F) Heat Index (°F) altimeter (in) sea level (mb) 1 hr 3 hr 6 hr
6 hour
Temperature (ºF) Pressure Precipitation (in)